Вернуться в каталог

STARLINK-30756

АктивенСвязьVLEO
NORAD 58129·PAYLOAD·🇺🇸 United States

Запущен Oct 22, 2023 с Cape Canaveral Space Force Station

Loading…

Ближайшие Пролёты (ближайшие 24 часа)

TLE

СвежийSource: CelesTrak SupGP

Эпоха: Sep 14, 2026, 14:17 UTC

1 58129C 23162M   26257.59562500  .00036374  00000+0  13180-2 0  2577
2 58129  42.9999 145.6269 0001486 253.9266 260.6383 15.27546905    17

Отслеживайте STARLINK-30756 в реальном времени с AllMySat

Download on the App Store